K2AS-13 Weather Reports


time (UTC)temp
F
wind
direction
speed
knots
gust
knots
rain 1hr
in
rain 24hr
in
rain mn
in
humidity
%
barometer
mb
20260507060016 42 0.0 0.0 0.00 0.47 0.00 88 1011.0
20260507055016 43 0.0 0.0 0.00 0.49 0.00 87 1011.0
20260507054036 43 0.0 0.0 0.00 0.50 0.00 83 1011.2
20260507053016 44 248 0.9 3.5 0.00 0.52 0.00 78 1011.2
20260507052016 44 270 2.6 6.1 0.00 0.54 0.00 77 1011.2
20260507051016 44 270 1.7 5.2 0.00 0.55 0.00 77 1011.4
20260507050015 44 270 1.7 6.1 0.00 0.57 0.00 76 1011.3
20260507045015 44 270 1.7 7.0 0.00 0.59 0.00 76 1011.3
20260507044015 44 270 1.7 7.0 0.01 0.61 0.00 78 1011.3
20260507043036 44 270 1.7 6.1 0.01 0.62 0.00 78 1011.2
20260507042016 44 293 2.6 7.8 0.01 0.63 0.00 80 1011.3
20260507041015 44 270 1.7 6.1 0.01 0.63 0.00 87 1011.0
20260507040016 44 270 1.7 5.2 0.01 0.64 0.64 91 1011.0
20260507035017 44 248 2.6 7.0 0.01 0.65 0.64 92 1010.9
20260507034017 44 270 0.9 5.2 0.00 0.64 0.63 93 1011.0
20260507033017 44 0.0 0.0 0.00 0.64 0.63 94 1010.8
20260507032017 44 0.0 0.0 0.00 0.64 0.63 94 1010.7
20260507031017 44 0.0 3.5 0.00 0.64 0.63 94 1010.7
20260507030017 44 248 0.9 2.6 0.00 0.65 0.63 95 1010.6
20260507025017 44 225 0.9 4.3 0.00 0.65 0.63 95 1010.7
20260507024017 43 270 0.9 4.3 0.00 0.65 0.63 95 1010.6
20260507023038 43 248 0.9 2.6 0.00 0.65 0.63 95 1010.6
20260507022017 43 225 0.9 3.5 0.00 0.65 0.63 95 1010.8
20260507021016 43 0.0 0.9 0.00 0.66 0.63 95 1010.9
20260507020037 44 0.0 1.7 0.00 0.66 0.63 95 1010.8
20260507015017 43 0.0 1.7 0.00 0.68 0.63 95 1010.5
20260507014037 43 0.0 1.7 0.00 0.69 0.63 95 1010.6
20260507013016 43 248 0.9 4.3 0.01 0.69 0.63 95 1010.7
20260507012017 43 270 0.9 3.5 0.01 0.69 0.63 94 1010.7
20260507011017 43 293 0.9 5.2 0.01 0.70 0.63 94 1010.6
20260507010017 43 270 1.7 6.1 0.01 0.70 0.63 94 1010.6
20260507005016 42 293 1.7 7.0 0.02 0.71 0.63 94 1010.5
20260507004016 42 293 1.7 4.3 0.02 0.72 0.63 93 1010.2
20260507003017 42 293 2.6 7.8 0.01 0.72 0.62 92 1010.2
20260507002058 43 293 4.3 8.7 0.01 0.73 0.62 90 1010.0
20260507001057 44 0.0 0.0 0.01 0.73 0.62 89 1009.9
20260507000037 45 315 0.9 3.5 0.01 0.74 0.62 89 1009.8
20260506235016 45 0.0 0.0 0.00 0.73 0.61 89 1009.6
20260506234017 46 0.0 0.0 0.00 0.74 0.61 89 1009.5
20260506233017 46 0.0 2.6 0.00 0.75 0.61 88 1009.3
20260506232017 48 0.0 0.0 0.00 0.76 0.61 87 1009.2
20260506231016 49 0.0 0.0 0.00 0.78 0.61 86 1009.0
20260506230016 49 0.0 0.0 0.00 0.78 0.61 85 1009.0
20260506225017 48 0.0 0.0 0.00 0.80 0.61 85 1008.7
20260506224037 48 0.0 0.0 0.00 0.81 0.61 86 1008.6
20260506223017 48 0.0 0.0 0.00 0.83 0.61 86 1008.5
20260506222016 48 0.0 0.0 0.00 0.83 0.61 86 1008.4
20260506221016 48 0.0 0.0 0.00 0.83 0.61 86 1008.5
20260506220016 48 0.0 0.0 0.00 0.83 0.61 85 1008.4
20260506215017 47 0.0 0.0 0.00 0.83 0.61 85 1008.5
20260506214037 47 0.0 0.0 0.00 0.83 0.61 84 1008.6
20260506213037 47 0.0 0.0 0.00 0.83 0.61 83 1008.6
20260506212017 48 0.0 0.0 0.00 0.83 0.61 83 1008.5
20260506211016 48 0.0 0.0 0.00 0.83 0.61 82 1008.6
20260506210016 48 0.0 2.6 0.00 0.83 0.61 82 1008.6
20260506205017 47 0.0 1.7 0.00 0.83 0.61 83 1008.6
20260506204016 47 0.0 0.9 0.00 0.83 0.61 83 1008.4
20260506203017 46 0.0 0.0 0.00 0.83 0.61 84 1008.4
20260506202016 46 0.0 0.0 0.00 0.83 0.61 84 1008.5
20260506201016 46 0.0 0.0 0.00 0.83 0.61 83 1008.6
20260506200016 46 0.0 0.9 0.00 0.83 0.61 83 1008.7
20260506195036 46 0.0 0.0 0.00 0.83 0.61 84 1008.6
20260506194037 46 0.0 0.0 0.00 0.83 0.61 85 1008.5
20260506193016 46 45 0.9 2.6 0.00 0.83 0.61 86 1008.5
20260506192017 46 45 0.9 2.6 0.00 0.83 0.61 86 1008.5
20260506191016 46 0.0 0.0 0.00 0.83 0.61 87 1008.7
20260506190016 46 0.0 1.7 0.00 0.83 0.61 87 1008.7
20260506185016 45 338 0.9 3.5 0.00 0.83 0.61 88 1008.6
20260506184017 45 23 0.9 4.3 0.00 0.83 0.61 90 1008.7
20260506183016 45 45 0.9 4.3 0.00 0.83 0.61 91 1008.5
20260506182016 45 293 1.7 6.1 0.00 0.83 0.61 93 1008.8
20260506181017 45 0 0.9 3.5 0.00 0.83 0.61 92 1009.0
20260506180016 45 338 0.9 4.3 0.00 0.83 0.61 93 1009.0
20260506175016 45 338 0.9 2.6 0.00 0.83 0.61 94 1008.7
20260506174016 44 338 1.7 4.3 0.00 0.83 0.61 94 1008.5
20260506173016 44 0.0 2.6 0.00 0.83 0.61 95 1008.3
20260506172036 44 338 0.9 4.3 0.00 0.83 0.61 95 1008.2
20260506171017 44 0.0 2.6 0.00 0.83 0.61 95 1008.1
20260506170057 44 0 0.9 3.5 0.00 0.83 0.61 95 1008.1
20260506165016 44 68 0.9 3.5 0.00 0.83 0.61 96 1007.9
20260506164016 43 0 2.6 5.2 0.01 0.83 0.61 95 1008.1
20260506163017 43 23 1.7 4.3 0.01 0.83 0.61 95 1008.0
20260506162036 44 338 0.9 3.5 0.01 0.83 0.61 96 1008.0
20260506161016 44 45 0.9 3.5 0.01 0.83 0.61 96 1008.0
20260506160016 44 23 0.9 4.3 0.01 0.83 0.61 96 1008.2
20260506155016 44 0 0.9 4.3 0.01 0.83 0.61 96 1008.1
20260506154016 44 0.0 3.5 0.00 0.82 0.60 96 1008.0
20260506153016 44 45 0.9 3.5 0.00 0.82 0.60 96 1007.9
20260506152037 44 23 0.9 3.5 0.00 0.82 0.60 96 1007.8
20260506151016 43 23 1.7 6.1 0.00 0.82 0.60 96 1007.9
20260506150056 43 68 0.9 3.5 0.00 0.82 0.60 96 1007.9
20260506145016 43 0.0 1.7 0.00 0.82 0.60 96 1007.7
20260506144016 43 45 0.9 3.5 0.01 0.82 0.60 96 1007.6
20260506143016 44 23 0.9 4.3 0.01 0.82 0.60 96 1007.6
20260506142016 44 23 0.9 6.1 0.01 0.82 0.60 96 1007.3
20260506141016 44 0.0 1.7 0.02 0.82 0.60 96 1007.4
20260506140016 44 0.0 1.7 0.02 0.82 0.60 96 1007.5
20260506135016 45 68 0.9 3.5 0.03 0.82 0.60 96 1007.3
20260506134017 45 0.0 0.9 0.02 0.81 0.59 96 1007.5
20260506133016 45 0.0 5.2 0.02 0.81 0.59 96 1007.2
20260506132016 45 0.0 1.7 0.02 0.81 0.59 96 1007.1
20260506131016 44 0.0 2.6 0.02 0.80 0.58 96 1007.1
20260506130016 44 0.0 2.6 0.03 0.80 0.58 96 1007.1
20260506125016 44 113 0.9 3.5 0.02 0.79 0.57 96 1007.2
20260506124016 44 0.0 1.7 0.02 0.79 0.57 96 1007.1
20260506123036 44 0.0 2.6 0.03 0.79 0.57 96 1007.2
20260506122016 44 90 0.9 3.5 0.03 0.79 0.57 96 1007.2
20260506121016 44 0.0 1.7 0.03 0.78 0.56 96 1007.2
20260506120017 44 0.0 1.7 0.02 0.77 0.55 96 1007.3
20260506115016 44 0.0 2.6 0.04 0.77 0.55 96 1007.3
20260506114016 44 0.0 1.7 0.05 0.77 0.55 96 1007.1
20260506113016 44 0.0 2.6 0.05 0.76 0.54 96 1007.0
20260506112036 44 90 1.7 8.7 0.06 0.76 0.54 96 1006.6
20260506111016 44 113 0.9 3.5 0.06 0.75 0.53 96 1006.7
20260506110016 44 0.0 1.7 0.08 0.75 0.53 96 1006.8
20260506105016 44 0.0 0.0 0.08 0.73 0.51 96 1007.1
20260506104036 44 0.0 0.9 0.08 0.72 0.50 96 1007.0
20260506103016 44 0.0 0.9 0.08 0.71 0.49 96 1007.3
20260506102016 44 0.0 0.9 0.07 0.70 0.48 96 1007.4
20260506101016 44 0.0 2.6 0.06 0.69 0.47 96 1007.4
20260506100016 44 0.0 0.0 0.04 0.67 0.45 96 1007.5
20260506095016 44 0.0 5.2 0.03 0.65 0.44 96 1007.4
20260506094057 45 0.0 1.7 0.03 0.64 0.42 96 1007.2
20260506093016 44 0.0 1.7 0.02 0.63 0.41 96 1007.1
20260506092016 45 0.0 1.7 0.03 0.63 0.41 96 1006.9
20260506091016 44 90 0.9 2.6 0.04 0.63 0.41 96 1006.8
20260506090016 44 90 0.9 3.5 0.05 0.63 0.41 96 1007.0
20260506085036 44 0.0 2.6 0.05 0.62 0.40 96 1007.4
20260506084016 44 0.0 2.6 0.06 0.61 0.39 96 1007.6
20260506083016 44 90 0.9 2.6 0.08 0.61 0.39 96 1007.2
20260506082016 44 113 0.9 2.6 0.08 0.60 0.38 96 1007.3
20260506081016 44 90 0.9 3.5 0.08 0.59 0.37 96 1007.5
20260506073016 46 0.0 0.0 0.07 0.53 0.31 96 1007.1
20260506072037 46 0.0 0.0 0.09 0.52 0.30 96 1007.3
20260506071016 46 0.0 0.0 0.10 0.51 0.29 96 1007.3
20260506062016 46 0.0 0.0 0.11 0.43 0.21 96 1008.4
20260506061016 46 0.0 0.0 0.10 0.41 0.19 96 1007.7